STARLINK-33690, 63406

Orbit data source: Space-Track

STARLINK-33690, 63406 is a payload satellite owned by SpaceX/Seattle (US) in LEO that was launched on Mon, 31 Mar 2025 UTC via an FALCON 9 launch vehicle from the Air Force Eastern Test Range (AFETR). Payload-class satellites include a variety of spacecraft equipped with specific instruments for various scientific and technological missions. These include communications satellites like Starlink; space stations such as the ISS; scientific satellites like the Hubble; Earth observation satellites from companies like Planet Labs, Umbra, and HawkEye 360; GPS; miniature CubeSats for education and research; and military/defense satellites.

Loading next visibility...
Identifier
63406, 2025-065H
Orbit
LEO
Country
Flag of USUS
Related business
Manufacturer
SpaceX/Seattle
Mission
Operational Commercial Communications
Bus & Motor
STARLINK V2MO, Unknown motor
Mass
575 kg wet, ~530 kg dry
Launch date (UTC)
2025-03-31 (1 year ago)
Launch vehicle
FALCON 9
Launch site
Air Force Eastern Test Range (AFETR)
Object type
Payload
Rocket body
Debris
Shape & HBR
Box + 2 Pan, 17.7 m
Radar Cross Section
36.964 m², Large (>1 m²)

Expand to show TLE details & history
Last TLE update: 9 hours ago

TLE from 9 hours ago
0 STARLINK-33690
1 63406U 25065H   26171.46361422  .00011107  00000-0  41236-3 0  9991
2 63406  43.0007 242.7144 0001788 264.6849  95.3799 15.27592810 68604
Epoch: 2026-06-20T11:07Z
TLE epoch observation values (Epoch: 2026-06-20T11:07:36.268Z)
Latitude
-0°
Longitude
167.13541°
Altitude
482.901 km
Speed
7.626 km/s
True Right ascension
16h 10m 51s
True Declination
0° 00' 00"
Sunlit
Object was in full shadow at epoch
Visualization orbit readout
Latitude
Unknown
Longitude
Unknown
Altitude
Unknown
Speed
Unknown
Apparent Right ascension
Unknown
Apparent Declination
Unknown
Sunlit
N/A
Visualization observer readout
Local Sidereal Time
07:19:19
Azimuth
Unknown
Elevation
Unknown
Doppler factor
Unknown
Orbital elements
Apogee altitude
486.183 km
Perigee altitude
483.729 km
Semi-major axis
6,863.093 km
Eccentricity
0.00018
Inclination
43.0007°
RAAN
242.7144°
Arg. of periapsis
264.6849°
True anomaly
95.4003°
Mean anomaly
95.3799°
Eccentric anomaly
95.3901°
Mean motion
3.81736 °/min
Orbital period
94.31 mins
BSTAR
0.00041236
Loading maneuver chart data...
Computing Atmospheric mass density...
Loading historical data...
Loading historical data...
Loading historical data...
Loading historical data...
Loading historical data...
Loading historical data...
Loading historical data...

Documentation

Showing up to 5 results
|